Tracking 28126 objects as of 1-Oct-2023
HD Live streaming from Space Station
objects crossing your sky now

DELTA 1 DEB

Track DELTA 1 DEB now!
10-day predictions


NORAD ID: 10825
Int'l Code: 1976-077BV
Perigee: 1,502.3 km
Apogee: 1,570.2 km
Inclination: 102.1 °
Period: 116.6 minutes
Semi major axis: 7907 km
RCS: 0.2635 m2 (medium)
Launch date: July 29, 1976
Source: United States (US)
Launch site: AIR FORCE WESTERN TEST RANGE (AFWTR)

Note: This is SATELLITE DEBRIS
Your satellite tracking list
Your tracking list is empty




NASA's NSSDC Master Catalog

Two Line Element Set (TLE):
1 10825U 76077BV  23273.10826124 -.00000021  00000-0  18918-3 0  9998
2 10825 102.1283 225.1886 0042915 209.8555 161.5099 12.34715119124970
Source of the keplerian elements: AFSPC